Weather History for KLHM - September, 2013

Change the Weather History Date:

Monday, September 2, 2013

  Actual Average (KAUN) Record (KAUN)
Temperature  
Mean Temperature 73 °F -  
Max Temperature 78 °F 90 °F 107 °F (1950)
Min Temperature 68 °F 61 °F 41 °F (1954)
Cooling Degree Days 8    
Growing Degree Days 23 (Base 50)    
Moisture  
Dew Point 59 °F    
Average Humidity 66    
Maximum Humidity 88    
Minimum Humidity 44    
Precipitation  
Precipitation 0.01 in - - ()
Sea Level Pressure  
Sea Level Pressure 29.88 in    
Wind  
Wind Speed 9 mph (SE)    
Max Wind Speed 13 mph    
Max Gust Speed 17 mph    
Visibility 10 miles    
Events      
Averages and records for this station are not official NWS values.
T = Trace of Precipitation, MM = Missing Value Source: NWS Daily Summary

Daily Weather History Graph

Daily Weather History Graph

Search for Another Location

Airport or City:

Trip Planner

Search our weather history database for the weather conditions in past years. The results will help you decide how hot, cold, wet, or windy it might be!

Date:

Astronomy

Sep. 02, 2013 Rise Set
Actual Time 6:35 AM PDT 7:33 PM PDT
Civil Twilight 6:08 AM PDT 8:00 PM PDT
Nautical Twilight 5:35 AM PDT 8:33 PM PDT
Astronomical Twilight 5:02 AM PDT 9:06 PM PDT
Moon 3:58 AM PDT (9/2) 5:49 PM PDT (9/2)
Length of Visible Light 13h 52m
Length of Day
12h 58m
Waning Crescent, 7% of the Moon is Illuminated
Sep 2
Waning Crescent
Sep 5
New
Sep 12
First Quarter
Sep 19
Full
Sep 26
Last Quarter

Hourly Weather History & Observations

Time (PDT) Temp. Dew Point Humidity Pressure Visibility Wind Dir Wind Speed Gust Speed Precip Events Conditions
12:15 AM 73.4 °F 53.6 °F 50% 29.86 in 10.0 mi SSE 10.4 mph - N/A   Overcast
12:35 AM 73.4 °F 53.6 °F 50% 29.86 in 10.0 mi South 11.5 mph - N/A   Overcast
12:55 AM 73.4 °F 53.6 °F 50% 29.86 in 10.0 mi South 8.1 mph - N/A   Overcast
1:15 AM 71.6 °F 55.4 °F 57% 29.86 in 10.0 mi South 9.2 mph - N/A   Overcast
1:35 AM 71.6 °F 55.4 °F 57% 29.86 in 10.0 mi SSE 10.4 mph - N/A   Overcast
1:55 AM 71.6 °F 55.4 °F 57% 29.86 in 10.0 mi South 6.9 mph - N/A   Overcast
2:15 AM 71.6 °F 55.4 °F 57% 29.86 in 10.0 mi SSE 10.4 mph - N/A   Overcast
2:35 AM 71.6 °F 55.4 °F 57% 29.85 in 10.0 mi SSE 10.4 mph - N/A   Overcast
2:55 AM 71.6 °F 55.4 °F 57% 29.85 in 10.0 mi SSE 10.4 mph - N/A   Overcast
3:15 AM 71.6 °F 55.4 °F 57% 29.86 in 10.0 mi SSE 9.2 mph - N/A   Overcast
3:35 AM 71.6 °F 55.4 °F 57% 29.85 in 10.0 mi SSE 10.4 mph - N/A   Overcast
3:55 AM 69.8 °F 55.4 °F 60% 29.85 in 10.0 mi SSE 9.2 mph - N/A   Overcast
4:15 AM 69.8 °F 55.4 °F 60% 29.85 in 10.0 mi SSE 11.5 mph - N/A   Overcast
4:35 AM 69.8 °F 55.4 °F 60% 29.85 in 10.0 mi SSE 8.1 mph - N/A   Overcast
4:55 AM 69.8 °F 57.2 °F 64% 29.86 in 10.0 mi SE 8.1 mph - N/A   Mostly Cloudy
5:15 AM 69.8 °F 57.2 °F 64% 29.86 in 10.0 mi SSE 6.9 mph - N/A   Overcast
5:35 AM 69.8 °F 57.2 °F 64% 29.86 in 10.0 mi SE 9.2 mph - N/A   Overcast
5:55 AM 69.8 °F 57.2 °F 64% 29.86 in 10.0 mi SE 9.2 mph - N/A   Overcast
6:15 AM 69.8 °F 59.0 °F 68% 29.87 in 10.0 mi SE 6.9 mph - N/A   Overcast
6:35 AM 69.8 °F 57.2 °F 64% 29.87 in 10.0 mi SE 6.9 mph - N/A   Overcast
6:55 AM 69.8 °F 57.2 °F 64% 29.88 in 10.0 mi SE 8.1 mph - N/A   Overcast
7:15 AM 68.0 °F 59.0 °F 73% 29.89 in 10.0 mi SSE 6.9 mph - N/A   Overcast
7:35 AM 69.8 °F 59.0 °F 68% 29.89 in 10.0 mi SSE 8.1 mph - N/A   Overcast
7:55 AM 69.8 °F 59.0 °F 68% 29.89 in 10.0 mi SSE 9.2 mph - N/A   Mostly Cloudy
8:15 AM 69.8 °F 59.0 °F 68% 29.90 in 10.0 mi SSE 9.2 mph - N/A   Mostly Cloudy
8:35 AM 69.8 °F 59.0 °F 68% 29.91 in 10.0 mi SSE 9.2 mph - N/A   Overcast
8:55 AM 69.8 °F 59.0 °F 68% 29.91 in 10.0 mi SSE 10.4 mph - N/A   Overcast
9:15 AM 69.8 °F 59.0 °F 68% 29.91 in 10.0 mi SSE 9.2 mph - N/A   Overcast
9:35 AM 69.8 °F 59.0 °F 68% 29.92 in 10.0 mi SSE 11.5 mph - N/A   Overcast
9:55 AM 69.8 °F 59.0 °F 68% 29.92 in 10.0 mi SSE 12.7 mph 17.3 mph N/A   Overcast
10:15 AM 69.8 °F 59.0 °F 68% 29.92 in 10.0 mi SE 11.5 mph - N/A   Mostly Cloudy
10:35 AM 73.4 °F 59.0 °F 61% 29.92 in 10.0 mi SE 9.2 mph - N/A   Mostly Cloudy
10:55 AM 71.6 °F 59.0 °F 64% 29.92 in 10.0 mi SE 8.1 mph - N/A   Mostly Cloudy
11:15 AM 71.6 °F 60.8 °F 69% 29.93 in 10.0 mi SE 8.1 mph - N/A   Mostly Cloudy
11:35 AM 73.4 °F 60.8 °F 65% 29.92 in 10.0 mi SE 8.1 mph - N/A   Mostly Cloudy
11:55 AM 71.6 °F 60.8 °F 69% 29.92 in 10.0 mi SSE 6.9 mph - N/A   Overcast
12:15 PM 73.4 °F 59.0 °F 61% 29.92 in 10.0 mi SE 11.5 mph - N/A   Overcast
12:35 PM 71.6 °F 60.8 °F 69% 29.92 in 10.0 mi ESE 9.2 mph - N/A   Overcast
12:55 PM 71.6 °F 62.6 °F 73% 29.92 in 10.0 mi SE 9.2 mph - N/A   Overcast
1:15 PM 73.4 °F 60.8 °F 65% 29.91 in 10.0 mi East 6.9 mph - N/A   Overcast
1:35 PM 77.0 °F 59.0 °F 54% 29.92 in 10.0 mi SE 6.9 mph - N/A   Mostly Cloudy
1:55 PM 77.0 °F 59.0 °F 54% 29.91 in 10.0 mi SE 8.1 mph - N/A   Overcast
2:15 PM 77.0 °F 59.0 °F 54% 29.90 in 10.0 mi SSE 9.2 mph - N/A   Overcast
2:35 PM 78.8 °F 59.0 °F 51% 29.90 in 10.0 mi ESE 8.1 mph - N/A   Overcast
2:55 PM 77.0 °F 55.4 °F 47% 29.89 in 10.0 mi ESE 8.1 mph - N/A   Overcast
3:15 PM 77.0 °F 53.6 °F 44% 29.88 in 10.0 mi SE 6.9 mph - N/A   Overcast
3:35 PM 77.0 °F 57.2 °F 50% 29.88 in 10.0 mi ESE 6.9 mph - N/A   Overcast
3:55 PM 75.2 °F 55.4 °F 50% 29.88 in 10.0 mi ESE 6.9 mph - N/A   Overcast
4:15 PM 75.2 °F 55.4 °F 50% 29.88 in 10.0 mi ESE 8.1 mph - N/A   Overcast
4:35 PM 71.6 °F 60.8 °F 69% 29.87 in 10.0 mi East 6.9 mph - N/A   Overcast
4:55 PM 71.6 °F 60.8 °F 69% 29.87 in 10.0 mi East 3.5 mph - N/A   Overcast
5:15 PM 69.8 °F 62.6 °F 78% 29.87 in 7.0 mi East 9.2 mph - N/A   Overcast
5:35 PM 69.8 °F 62.6 °F 78% 29.85 in 10.0 mi East 9.2 mph - N/A   Overcast
5:55 PM 69.8 °F 62.6 °F 78% 29.85 in 10.0 mi East 8.1 mph - N/A   Overcast
6:15 PM 69.8 °F 64.4 °F 83% 29.85 in 0.8 mi East 8.1 mph - N/A   Overcast
6:35 PM 71.6 °F 62.6 °F 73% 29.85 in 10.0 mi East 8.1 mph - N/A   Overcast
6:55 PM 71.6 °F 64.4 °F 78% 29.85 in 10.0 mi SE 6.9 mph - N/A   Overcast
7:15 PM 71.6 °F 66.2 °F 83% 29.84 in 10.0 mi ESE 8.1 mph - N/A   Overcast
7:35 PM 71.6 °F 68.0 °F 88% 29.84 in 10.0 mi SE 5.8 mph - N/A   Mostly Cloudy
7:55 PM 71.6 °F 66.2 °F 83% 29.85 in 10.0 mi SSE 5.8 mph - N/A   Scattered Clouds
8:15 PM 71.6 °F 68.0 °F 88% 29.85 in 10.0 mi ESE 4.6 mph - N/A   Mostly Cloudy
8:35 PM 71.6 °F 64.4 °F 78% 29.85 in 10.0 mi South 3.5 mph - N/A   Mostly Cloudy
8:55 PM 71.6 °F 64.4 °F 78% 29.87 in 10.0 mi SSW 5.8 mph - N/A   Scattered Clouds
9:15 PM 69.8 °F 62.6 °F 78% 29.87 in 10.0 mi South 8.1 mph - N/A   Clear
9:35 PM 69.8 °F 60.8 °F 73% 29.87 in 10.0 mi SSE 9.2 mph - 0.01 in   Clear
9:55 PM 69.8 °F 60.8 °F 73% 29.87 in 10.0 mi SSE 9.2 mph - N/A   Scattered Clouds
10:15 PM 69.8 °F 60.8 °F 73% 29.87 in 10.0 mi SSE 8.1 mph - N/A   Mostly Cloudy
10:35 PM 69.8 °F 60.8 °F 73% 29.87 in 10.0 mi SE 9.2 mph - N/A   Mostly Cloudy
10:55 PM 69.8 °F 60.8 °F 73% 29.87 in 10.0 mi SE 12.7 mph - N/A   Scattered Clouds
11:15 PM 69.8 °F 60.8 °F 73% 29.87 in 10.0 mi ESE 6.9 mph - N/A   Mostly Cloudy
11:35 PM 69.8 °F 60.8 °F 73% 29.88 in 10.0 mi SSW 4.6 mph - N/A   Scattered Clouds
11:55 PM 68.0 °F 60.8 °F 78% 29.88 in 10.0 mi Calm Calm - N/A   Clear